COSMOS 1275 DEB, 12706

Orbit data source: Space-Track

COSMOS 1275 DEB, 12706 is space debris in LEO originally from a launch on Thu, 04 Jun 1981 UTC launched from the Plesetsk Missile And Space Complex (PKMTR). Debris objects in space refer to the collection of defunct objects orbiting the Earth. Examples of debris include non-operational satellites, rocket bodies, and fragments generated from explosions, collisions, or faulty payload assembly.

Loading next visibility...
Identifier
12706, 1981-053BA
Orbit
LEO
Country
Flag of CISCIS
Related business
Manufacturer
Unknown
Mission
Spacecraft
Bus & Motor
Unknown
Mass
Unknown
Launch date (UTC)
1981-06-04 (45 years ago)
Launch vehicle
Unknown
Launch site
Plesetsk Missile And Space Complex (PKMTR)
Object type
Payload
Rocket body
Debris
Shape & HBR
Unknown shape, 0.1 m
Radar Cross Section
Small (<0.1 m²)

Expand to show TLE details & history
Last TLE update: 16 hours ago

TLE from 16 hours ago
0 COSMOS 1275 DEB
1 12706U 81053BA  26071.79983075  .00001672  00000-0  15038-2 0  9992
2 12706  82.8845  12.9227 0103089 308.5273  79.2697 13.81193129225787
Epoch: 2026-03-12T19:11Z
TLE epoch observation values (Epoch: 2026-03-12T19:11:45.376Z)
Latitude
28.76142°
Longitude
-81.5526°
Altitude
949.885 km
Speed
7.386 km/s
True Right ascension
01h 07m 19s
True Declination
28° 37' 13"
Sunlit
Object was in daylight at epoch
Visualization orbit readout
Latitude
Unknown
Longitude
Unknown
Altitude
Unknown
Speed
Unknown
Apparent Right ascension
Unknown
Apparent Declination
Unknown
Sunlit
N/A
Visualization observer readout
Local Sidereal Time
15:49:31
Azimuth
Unknown
Elevation
Unknown
Doppler factor
Unknown
Orbital elements
Apogee altitude
1,032.415 km
Perigee altitude
881.185 km
Semi-major axis
7,334.937 km
Eccentricity
0.01031
Inclination
82.8845°
RAAN
12.9227°
Arg. of periapsis
308.5273°
True anomaly
80.43307°
Mean anomaly
79.2697°
Eccentric anomaly
79.85111°
Mean motion
3.455 °/min
Orbital period
104.2 mins
BSTAR
0.0015038
Loading maneuver chart data...
Computing Atmospheric mass density...
Loading historical data...
Loading historical data...
Loading historical data...
Loading historical data...
Loading historical data...
Loading historical data...
Loading historical data...

Documentation

Showing up to 5 results
|